Вернуться в каталог

INTELSAT 37E

АктивенСвязьGEO
NORAD 42950·PAYLOAD· XX

Запущен Sep 29, 2017 с Guiana Space Centre

Loading…

TLE

СвежийSource: CelesTrak SupGP

Эпоха: Sep 14, 2026, 20:21 UTC

1 42950C 17059A   26257.84861111 -.00003280  00000+0  00000+0 0  2573
2 42950   0.0040 211.6104 0002743 317.4132 112.3074  1.00272303    15

Отслеживайте INTELSAT 37E в реальном времени с AllMySat

Download on the App Store